| time (UTC) | temp C | wind direction | speed KPH | gust KPH | rain 1hr cm | rain 24hr cm | rain mn cm | humidity % | barometer mb |
| 20260505004519 | 11 | 139 | 6.4 | 9.7 | 0.00 | 0.00 | 0.00 | 65 | 1010.7 |
| 20260505004020 | 11 | 49 | 3.2 | 11.3 | 0.00 | 0.00 | 0.00 | 63 | 1010.7 |
| 20260505003520 | 11 | 323 | 6.4 | 11.3 | 0.00 | 0.00 | 0.00 | 63 | 1010.7 |
| 20260505003028 | 11 | 339 | 8.0 | 14.5 | 0.00 | 0.00 | 0.00 | 64 | 1010.8 |
| 20260505002528 | 11 | 320 | 8.0 | 20.9 | 0.00 | 0.00 | 0.00 | 64 | 1010.8 |
| 20260505002015 | 11 | 320 | 9.7 | 22.5 | 0.00 | 0.00 | 0.00 | 65 | 1010.8 |
| 20260505001513 | 10 | 324 | 16.1 | 22.5 | 0.00 | 0.00 | 0.00 | 66 | 1010.8 |
| 20260505001021 | 10 | 310 | 12.9 | 24.1 | 0.00 | 0.00 | 0.00 | 67 | 1010.8 |
| 20260505000548 | 11 | 334 | 16.1 | 24.1 | 0.00 | 0.00 | 0.00 | 66 | 1010.8 |
| 20260505000027 | 11 | 310 | 14.5 | 24.1 | 0.00 | 0.00 | 0.00 | 64 | 1010.9 |
| 20260504235535 | 11 | 359 | 14.5 | 25.7 | 0.00 | 0.00 | 0.00 | 60 | 1011.0 |
| 20260504235014 | 12 | 320 | 12.9 | 25.7 | 0.00 | 0.00 | 0.00 | 51 | 1010.9 |
| 20260504234515 | 13 | 336 | 14.5 | 30.6 | 0.00 | 0.00 | 0.00 | 48 | 1010.7 |
| 20260504234022 | 14 | 327 | 20.9 | 30.6 | 0.00 | 0.00 | 0.00 | 44 | 1010.4 |
| 20260504233543 | 15 | 53 | 8.0 | 14.5 | 0.00 | 0.00 | 0.00 | 40 | 1010.2 |
| 20260504233029 | 15 | 350 | 4.8 | 9.7 | 0.00 | 0.00 | 0.00 | 39 | 1010.2 |
| 20260504232530 | 15 | 70 | 3.2 | 11.3 | 0.00 | 0.00 | 0.00 | 39 | 1010.1 |
| 20260504232037 | 15 | 20 | 4.8 | 11.3 | 0.00 | 0.00 | 0.00 | 39 | 1010.0 |
| 20260504231517 | 15 | 62 | 6.4 | 14.5 | 0.00 | 0.00 | 0.00 | 39 | 1009.9 |
| 20260504231026 | 15 | 78 | 8.0 | 14.5 | 0.00 | 0.00 | 0.00 | 39 | 1009.8 |
| 20260504230525 | 15 | 55 | 6.4 | 12.9 | 0.00 | 0.00 | 0.00 | 40 | 1009.8 |
| 20260504230033 | 15 | 336 | 3.2 | 14.5 | 0.00 | 0.00 | 0.00 | 40 | 1009.8 |
| 20260504225539 | 15 | 85 | 4.8 | 14.5 | 0.00 | 0.00 | 0.00 | 41 | 1009.7 |
| 20260504225020 | 15 | 45 | 8.0 | 14.5 | 0.00 | 0.00 | 0.00 | 40 | 1009.8 |
| 20260504224520 | 15 | 66 | 9.7 | 14.5 | 0.00 | 0.00 | 0.00 | 40 | 1009.7 |
| 20260504224027 | 15 | 101 | 3.2 | 16.1 | 0.00 | 0.00 | 0.00 | 40 | 1009.8 |
| 20260504223555 | 15 | 98 | 8.0 | 16.1 | 0.00 | 0.00 | 0.00 | 40 | 1009.7 |
| 20260504223014 | 15 | 104 | 4.8 | 11.3 | 0.00 | 0.00 | 0.00 | 39 | 1009.7 |
| 20260504222514 | 15 | 62 | 4.8 | 14.5 | 0.00 | 0.00 | 0.00 | 39 | 1009.8 |
| 20260504222021 | 15 | 79 | 8.0 | 19.3 | 0.00 | 0.00 | 0.00 | 40 | 1009.9 |
| 20260504221522 | 15 | 43 | 8.0 | 19.3 | 0.00 | 0.00 | 0.00 | 39 | 1009.9 |
| 20260504221051 | 15 | 339 | 6.4 | 14.5 | 0.00 | 0.00 | 0.00 | 39 | 1010.0 |
| 20260504220531 | 15 | 340 | 8.0 | 17.7 | 0.00 | 0.00 | 0.00 | 39 | 1010.1 |
| 20260504220039 | 15 | 341 | 11.3 | 17.7 | 0.00 | 0.00 | 0.00 | 39 | 1010.0 |
| 20260504215519 | 15 | 343 | 8.0 | 16.1 | 0.00 | 0.00 | 0.00 | 40 | 1010.1 |
| 20260504215026 | 15 | 309 | 8.0 | 16.1 | 0.00 | 0.00 | 0.00 | 39 | 1010.2 |
| 20260504214547 | 15 | 328 | 8.0 | 16.1 | 0.00 | 0.00 | 0.00 | 39 | 1010.2 |
| 20260504214013 | 15 | 320 | 4.8 | 17.7 | 0.00 | 0.00 | 0.00 | 39 | 1010.2 |
| 20260504213541 | 15 | 346 | 8.0 | 17.7 | 0.00 | 0.00 | 0.00 | 39 | 1010.2 |
| 20260504213021 | 15 | 321 | 11.3 | 25.7 | 0.00 | 0.00 | 0.00 | 39 | 1010.2 |
| 20260504212523 | 15 | 335 | 16.1 | 25.7 | 0.00 | 0.00 | 0.00 | 38 | 1010.2 |
| 20260504212013 | 16 | 334 | 14.5 | 22.5 | 0.00 | 0.00 | 0.00 | 38 | 1010.3 |
| 20260504211513 | 16 | 22 | 11.3 | 19.3 | 0.00 | 0.00 | 0.00 | 38 | 1010.3 |
| 20260504211014 | 16 | 232 | 9.7 | 24.1 | 0.00 | 0.00 | 0.00 | 39 | 1010.4 |
| 20260504210542 | 15 | 62 | 4.8 | 24.1 | 0.00 | 0.00 | 0.00 | 41 | 1010.6 |
| 20260504210047 | 15 | 70 | 14.5 | 24.1 | 0.00 | 0.00 | 0.00 | 39 | 1010.6 |
| 20260504205527 | 15 | 57 | 11.3 | 24.1 | 0.00 | 0.00 | 0.00 | 39 | 1010.6 |
| 20260504205035 | 16 | 43 | 16.1 | 24.1 | 0.00 | 0.00 | 0.00 | 39 | 1010.6 |
| 20260504204515 | 16 | 62 | 14.5 | 22.5 | 0.00 | 0.00 | 0.00 | 38 | 1010.5 |
| 20260504204016 | 16 | 64 | 11.3 | 24.1 | 0.00 | 0.00 | 0.00 | 38 | 1010.4 |
| 20260504203524 | 16 | 49 | 9.7 | 22.5 | 0.00 | 0.00 | 0.00 | 37 | 1010.4 |
| 20260504203027 | 16 | 72 | 9.7 | 17.7 | 0.00 | 0.00 | 0.00 | 37 | 1010.5 |
| 20260504202527 | 16 | 82 | 8.0 | 14.5 | 0.00 | 0.00 | 0.00 | 36 | 1010.6 |
| 20260504202017 | 16 | 104 | 4.8 | 12.9 | 0.00 | 0.00 | 0.00 | 37 | 1010.6 |
| 20260504201520 | 15 | 355 | 6.4 | 17.7 | 0.00 | 0.00 | 0.00 | 36 | 1010.7 |
| 20260504201049 | 16 | 104 | 6.4 | 20.9 | 0.00 | 0.00 | 0.00 | 36 | 1010.7 |
| 20260504200528 | 16 | 115 | 12.9 | 20.9 | 0.00 | 0.00 | 0.00 | 36 | 1010.7 |
| 20260504200036 | 16 | 68 | 8.0 | 17.7 | 0.00 | 0.00 | 0.00 | 37 | 1010.6 |
| 20260504195516 | 16 | 20 | 8.0 | 16.1 | 0.00 | 0.00 | 0.00 | 36 | 1010.7 |
| 20260504195019 | 16 | 62 | 8.0 | 17.7 | 0.00 | 0.00 | 0.00 | 37 | 1010.8 |
| 20260504194528 | 16 | 321 | 6.4 | 17.7 | 0.00 | 0.00 | 0.00 | 37 | 1010.8 |
| 20260504194029 | 15 | 55 | 6.4 | 20.9 | 0.00 | 0.00 | 0.00 | 37 | 1010.8 |
| 20260504193537 | 15 | 59 | 11.3 | 20.9 | 0.00 | 0.00 | 0.00 | 38 | 1010.8 |
| 20260504193041 | 15 | 318 | 8.0 | 20.9 | 0.00 | 0.00 | 0.00 | 37 | 1010.8 |
| 20260504192527 | 15 | 37 | 11.3 | 20.9 | 0.00 | 0.00 | 0.00 | 36 | 1010.6 |
| 20260504192055 | 16 | 61 | 9.7 | 29.0 | 0.00 | 0.00 | 0.00 | 37 | 1010.6 |
| 20260504191537 | 16 | 51 | 12.9 | 29.0 | 0.00 | 0.00 | 0.00 | 36 | 1010.6 |
| 20260504191027 | 16 | 75 | 12.9 | 27.4 | 0.00 | 0.00 | 0.00 | 35 | 1010.4 |
| 20260504190529 | 16 | 32 | 14.5 | 27.4 | 0.00 | 0.00 | 0.00 | 35 | 1010.3 |
| 20260504190031 | 16 | 54 | 20.9 | 38.6 | 0.00 | 0.00 | 0.00 | 35 | 1010.3 |
| 20260504185538 | 16 | 22 | 17.7 | 38.6 | 0.00 | 0.00 | 0.00 | 34 | 1010.2 |
| 20260504185013 | 17 | 50 | 22.5 | 35.4 | 0.00 | 0.00 | 0.00 | 34 | 1010.2 |
| 20260504184519 | 17 | 79 | 20.9 | 37.0 | 0.00 | 0.00 | 0.00 | 34 | 1010.2 |
| 20260504184048 | 17 | 74 | 19.3 | 33.8 | 0.00 | 0.00 | 0.00 | 34 | 1010.3 |
| 20260504183530 | 17 | 70 | 19.3 | 32.2 | 0.00 | 0.00 | 0.00 | 33 | 1010.2 |
| 20260504183041 | 17 | 60 | 19.3 | 40.2 | 0.00 | 0.00 | 0.00 | 34 | 1010.2 |
| 20260504182524 | 17 | 66 | 19.3 | 40.2 | 0.00 | 0.00 | 0.00 | 34 | 1010.2 |
| 20260504182053 | 17 | 64 | 17.7 | 38.6 | 0.00 | 0.00 | 0.00 | 32 | 1010.2 |
| 20260504181513 | 18 | 75 | 19.3 | 33.8 | 0.00 | 0.00 | 0.00 | 32 | 1010.2 |
| 20260504181016 | 17 | 57 | 14.5 | 37.0 | 0.00 | 0.00 | 0.00 | 33 | 1010.1 |
| 20260504180544 | 17 | 85 | 16.1 | 43.5 | 0.00 | 0.00 | 0.00 | 32 | 1010.0 |
| 20260504180026 | 18 | 55 | 22.5 | 43.5 | 0.00 | 0.00 | 0.00 | 30 | 1010.0 |
| 20260504175535 | 19 | 85 | 20.9 | 35.4 | 0.00 | 0.00 | 0.00 | 28 | 1010.0 |
| 20260504175034 | 20 | 49 | 19.3 | 35.4 | 0.00 | 0.00 | 0.00 | 27 | 1009.8 |
| 20260504174520 | 19 | 57 | 17.7 | 43.5 | 0.00 | 0.00 | 0.00 | 28 | 1009.8 |
| 20260504174043 | 19 | 68 | 20.9 | 43.5 | 0.00 | 0.00 | 0.00 | 27 | 1009.8 |
| 20260504173531 | 20 | 37 | 16.1 | 41.8 | 0.00 | 0.00 | 0.00 | 23 | 1009.7 |
| 20260504173012 | 20 | 54 | 11.3 | 25.7 | 0.00 | 0.00 | 0.00 | 20 | 1009.7 |
| 20260504172541 | 20 | 324 | 12.9 | 27.4 | 0.00 | 0.00 | 0.00 | 22 | 1009.6 |
| 20260504172029 | 20 | 338 | 11.3 | 27.4 | 0.00 | 0.00 | 0.00 | 21 | 1009.8 |
| 20260504171529 | 20 | 358 | 17.7 | 25.7 | 0.00 | 0.00 | 0.00 | 21 | 1009.7 |
| 20260504171031 | 20 | 314 | 14.5 | 22.5 | 0.00 | 0.00 | 0.00 | 22 | 1009.6 |
| 20260504170512 | 20 | 31 | 6.4 | 19.3 | 0.00 | 0.00 | 0.00 | 21 | 1009.6 |
| 20260504151022 | 17 | 338 | 12.9 | 22.5 | 0.00 | 0.00 | 0.00 | 24 | 1009.9 |
| 20260504150531 | 17 | 344 | 14.5 | 22.5 | 0.00 | 0.00 | 0.00 | 24 | 1009.9 |
| 20260504141039 | 13 | 355 | 8.0 | 12.9 | 0.00 | 0.00 | 0.00 | 33 | 1009.9 |
| 20260504140518 | 13 | 332 | 3.2 | 11.3 | 0.00 | 0.00 | 0.00 | 35 | 1009.9 |
| 20260504130536 | 8 | 148 | 6.4 | 9.7 | 0.00 | 0.00 | 0.00 | 52 | 1009.8 |
| 20260504110531 | 3 | 257 | 6.4 | 11.3 | 0.00 | 0.00 | 0.00 | 69 | 1009.7 |
| 20260504100522 | 2 | 230 | 3.2 | 4.8 | 0.00 | 0.00 | 0.00 | 67 | 1010.1 |
| 20260504081529 | 2 | 249 | 1.6 | 8.0 | 0.00 | 0.00 | 0.00 | 71 | 1011.3 |
| 20260504081038 | 2 | 243 | 3.2 | 6.4 | 0.00 | 0.00 | 0.00 | 71 | 1011.3 |
| 20260504080520 | 2 | 228 | 1.6 | 8.0 | 0.00 | 0.00 | 0.00 | 71 | 1011.4 |
| 20260504050534 | 4 | 164 | 1.6 | 4.8 | 0.00 | 0.00 | 0.00 | 61 | 1012.9 |
| 20260504050014 | 4 | 247 | 1.6 | 4.8 | 0.00 | 0.00 | 0.00 | 61 | 1013.0 |
| 20260504045522 | 5 | 232 | 3.2 | 4.8 | 0.00 | 0.00 | 0.00 | 61 | 1013.0 |
| 20260504045023 | 5 | 216 | 0.0 | 3.2 | 0.00 | 0.00 | 0.00 | 60 | 1013.1 |
| 20260504044534 | 5 | 290 | 1.6 | 3.2 | 0.00 | 0.00 | 0.00 | 60 | 1013.0 |
| 20260504044013 | 5 | 131 | 1.6 | 3.2 | 0.00 | 0.00 | 0.00 | 59 | 1013.0 |
| 20260504043514 | 5 | 62 | 0.0 | 3.2 | 0.00 | 0.00 | 0.00 | 58 | 1013.1 |
| 20260504043022 | 5 | 276 | 1.6 | 3.2 | 0.00 | 0.00 | 0.00 | 58 | 1013.1 |
| 20260504042550 | 5 | 320 | 1.6 | 3.2 | 0.00 | 0.00 | 0.00 | 57 | 1013.1 |
| 20260504042050 | 5 | 104 | 0.0 | 3.2 | 0.00 | 0.00 | 0.00 | 57 | 1013.1 |
| 20260504041538 | 6 | 216 | 1.6 | 3.2 | 0.00 | 0.00 | 0.00 | 56 | 1013.2 |
| 20260504041018 | 6 | 104 | 0.0 | 3.2 | 0.00 | 0.00 | 0.00 | 55 | 1013.2 |
| 20260504040520 | 6 | 131 | 0.0 | 3.2 | 0.00 | 0.00 | 0.00 | 54 | 1013.1 |
| 20260504040048 | 6 | 62 | 0.0 | 1.6 | 0.00 | 0.00 | 0.00 | 52 | 1013.2 |
| 20260504035527 | 7 | 320 | 0.0 | 1.6 | 0.00 | 0.00 | 0.00 | 51 | 1013.2 |
| 20260504035034 | 7 | 189 | 0.0 | 1.6 | 0.00 | 0.00 | 0.00 | 50 | 1013.1 |
| 20260504034535 | 7 | 276 | 0.0 | 1.6 | 0.00 | 0.00 | 0.00 | 49 | 1013.1 |
| 20260504034022 | 8 | 232 | 0.0 | 3.2 | 0.00 | 0.00 | 0.00 | 48 | 1013.1 |
| 20260504033538 | 8 | 232 | 0.0 | 3.2 | 0.00 | 0.00 | 0.00 | 47 | 1013.0 |
| 20260504033025 | 8 | 336 | 1.6 | 4.8 | 0.00 | 0.00 | 0.00 | 46 | 1012.9 |
| 20260504032526 | 9 | 104 | 1.6 | 8.0 | 0.00 | 0.00 | 0.00 | 46 | 1012.9 |
| 20260504032033 | 9 | 116 | 4.8 | 11.3 | 0.00 | 0.00 | 0.00 | 46 | 1012.9 |
| 20260504031518 | 10 | 116 | 6.4 | 11.3 | 0.00 | 0.00 | 0.00 | 44 | 1012.7 |
| 20260504031019 | 10 | 115 | 4.8 | 9.7 | 0.00 | 0.00 | 0.00 | 43 | 1012.8 |
| 20260504030526 | 10 | 121 | 6.4 | 11.3 | 0.00 | 0.00 | 0.00 | 42 | 1012.8 |
| 20260504030027 | 11 | 113 | 8.0 | 16.1 | 0.00 | 0.00 | 0.00 | 42 | 1012.8 |
| 20260504025539 | 11 | 83 | 9.7 | 16.1 | 0.00 | 0.00 | 0.00 | 41 | 1012.8 |
| 20260504025017 | 11 | 101 | 8.0 | 16.1 | 0.00 | 0.00 | 0.00 | 41 | 1012.8 |
| 20260504024517 | 11 | 98 | 9.7 | 16.1 | 0.00 | 0.00 | 0.00 | 40 | 1012.8 |
| 20260504024045 | 11 | 103 | 11.3 | 14.5 | 0.00 | 0.00 | 0.00 | 39 | 1012.8 |
| 20260504023525 | 12 | 70 | 6.4 | 11.3 | 0.00 | 0.00 | 0.00 | 39 | 1012.8 |
| 20260504023033 | 12 | 82 | 4.8 | 12.9 | 0.00 | 0.00 | 0.00 | 37 | 1012.8 |
| 20260504022513 | 12 | 97 | 6.4 | 12.9 | 0.00 | 0.00 | 0.00 | 37 | 1012.7 |
| 20260504022014 | 13 | 85 | 6.4 | 12.9 | 0.00 | 0.00 | 0.00 | 36 | 1012.7 |
| 20260504021522 | 13 | 110 | 6.4 | 16.1 | 0.00 | 0.00 | 0.00 | 35 | 1012.7 |
| 20260504021023 | 13 | 88 | 6.4 | 16.1 | 0.00 | 0.00 | 0.00 | 34 | 1012.6 |
| 20260504020546 | 14 | 82 | 9.7 | 16.1 | 0.00 | 0.00 | 0.00 | 34 | 1012.5 |
| 20260504020053 | 15 | 99 | 8.0 | 17.7 | 0.00 | 0.00 | 0.00 | 32 | 1012.5 |
| 20260504015513 | 15 | 70 | 8.0 | 17.7 | 0.00 | 0.00 | 0.00 | 31 | 1012.5 |
| 20260504015014 | 15 | 95 | 9.7 | 20.9 | 0.00 | 0.00 | 0.00 | 30 | 1012.4 |
| 20260504014522 | 16 | 60 | 11.3 | 27.4 | 0.00 | 0.00 | 0.00 | 29 | 1012.4 |
| 20260504014022 | 16 | 62 | 14.5 | 27.4 | 0.00 | 0.00 | 0.00 | 28 | 1012.4 |
| 20260504013523 | 17 | 52 | 14.5 | 25.7 | 0.00 | 0.00 | 0.00 | 24 | 1012.3 |
| 20260504013015 | 17 | 45 | 4.8 | 14.5 | 0.00 | 0.00 | 0.00 | 22 | 1012.2 |
| 20260504012514 | 17 | 22 | 6.4 | 16.1 | 0.00 | 0.00 | 0.00 | 22 | 1012.0 |
| 20260504012017 | 17 | 89 | 8.0 | 16.1 | 0.00 | 0.00 | 0.00 | 23 | 1012.2 |
| 20260504011526 | 17 | 66 | 9.7 | 22.5 | 0.00 | 0.00 | 0.00 | 23 | 1012.1 |
| 20260504011051 | 17 | 50 | 9.7 | 22.5 | 0.00 | 0.00 | 0.00 | 23 | 1012.1 |
| 20260504010516 | 17 | 74 | 11.3 | 25.7 | 0.00 | 0.00 | 0.00 | 23 | 1012.1 |
| 20260504010018 | 18 | 44 | 14.5 | 25.7 | 0.00 | 0.00 | 0.00 | 22 | 1012.0 |
| 20260504005526 | 18 | 85 | 11.3 | 22.5 | 0.00 | 0.00 | 0.00 | 22 | 1012.0 |
| 20260504005027 | 18 | 65 | 12.9 | 29.0 | 0.00 | 0.00 | 0.00 | 21 | 1012.0 |